Regional Weather Roundup
Issued by NWS Cleveland, OH

Home | Current Version | Previous Version | Graphics & Text | Print | Product List | Glossary On
Versions: 1 2 3 4 5 6 7 8 9 10 11 12 13 14 15 16 17 18 19 20 21 22 23 24 25 26 27 28 29 30 31 32 33 34 35 36 37 38 39 40 41 42 43 44 45 46 47 48 49 50
000
ASUS41 KCLE 012102
RWRCLE
OHIO REGIONAL WEATHER ROUNDUP
NATIONAL WEATHER SERVICE CLEVELAND, OH
500 PM EDT MON SEP 01 2014

NOTE: "FAIR" INDICATES FEW OR NO CLOUDS BELOW 12,000 FEET WITH NO
SIGNIFICANT WEATHER AND/OR OBSTRUCTIONS TO VISIBILITY.

OHZ001>008-015>018-024>027-034-035-043-044-012200-
   NORTHWEST OHIO

CITY           SKY/WX    TMP DP  RH WIND       PRES   REMARKS
DEFIANCE       PTSUNNY   84  69  60 SW20G26   29.80F
FINDLAY        PTSUNNY   86  69  56 SW18      29.83F HX  90
TOLEDO EXPRESS LGT RAIN  79  72  79 SW10G24   29.79F
TOLEDO EXEC    PTSUNNY   86  67  52 SW17G30   29.80F
LIMA           PTSUNNY   85  70  60 SW15G22   29.86S
$$

OHZ009>014-019>023-028>033-038-089-012200-
   NORTHEAST OHIO

CITY           SKY/WX    TMP DP  RH WIND       PRES   REMARKS
CLE-HOPKINS    PTSUNNY   83  69  62 S15G24    29.87F
CLE-LAKEFRONT  PTSUNNY   86  67  52 S21G26    29.83S
CUY CO. ARPT   PTSUNNY   84  72  65 SW14G23   29.87F
LORAIN-ELYRIA  PTSUNNY   86  70  58 SW15G23   29.86F HX  90
ASHTABULA      MOSUNNY   82  69  64 S13G21    29.88F
AKRON-CANTON   PTSUNNY   82  69  64 SW12G22   29.91F
WOOSTER        MOSUNNY   81  70  69 SW9       29.91S
MANSFIELD      PTSUNNY   82  70  66 SW15G26   29.90S
YOUNGSTOWN     CLOUDY    80  68  66 S10       29.91F
$$

OHZ042-051>053-060>062-070>072-077>081-012200-
  SOUTHWEST OHIO

CITY           SKY/WX    TMP DP  RH WIND       PRES   REMARKS
CINC-COVINGTON PTSUNNY   84  69  60 SW14G22   29.93F
CINC-LUNKEN    MOSUNNY   87  71  58 SW20      29.91F HX  93
HAMILTON       TSTM      77  72  84 CALM      29.91F
DAYTON         PTSUNNY   85  71  63 SW14      29.91S HX  90
WRIGHT-PAT AFB PTSUNNY   84  72  67 SW15G26   29.90F HX  90
DAYTON GENERAL PTSUNNY   82  73  74 SW8       29.91F
WILMINGTON     MOSUNNY   84  70  62 SW14      29.92F
$$

OHZ036-037-039>041-045>050-054>059-063>069-073>076-082>088-012200-
  CENTRAL AND SOUTHEAST OHIO

CITY           SKY/WX    TMP DP  RH WIND       PRES   REMARKS
COLUMBUS       LGT RAIN  83  71  67 SW16G24   29.91S
OSU AIRPORT    MOSUNNY   84  69  60 SW18G26   29.90F
BOLTON FIELD   MOSUNNY   82  72  69 S14       29.92S
RICKENBACK AFB PTSUNNY   86  65  50 SW13G22   29.91S
NEWARK         PTSUNNY   83  71  67 SW9       29.91F
MARION         MOSUNNY   85  71  63 SW16G23   29.88F HX  90
LANCASTER      PTSUNNY   82  70  66 SW8       29.93S
ZANESVILLE     MOSUNNY   83  70  64 SW15      29.93F
NEW PHILLY     MOSUNNY   82  71  69 SW8       29.93S
$$



USA.gov is the U.S. government's official web portal to all federal, state and local government web resources and services.